Terminal Aerodrome Forecast
Issued by NWS La Crosse, WI

Home | Current Version | Previous Version | Text Only | Print | Product List | Glossary On
Versions: 1 2 3 4 5 6 7 8 9 10 11 12 13 14 15 16 17 18 19 20 21 22 23 24 25 26 27 28 29 30 31 32 33 34 35 36 37 38 39 40 41 42 43
000
FTUS43 KARX 022333
TAFLSE
TAF
KLSE 022333Z 0300/0324 18006KT P6SM BKN070
     FM030200 15005KT P6SM SCT250
     FM030900 17004KT 3SM BR SCT003
     FM031400 17005KT P6SM SKC
     FM031800 18005KT P6SM SCT030=

USA.gov is the U.S. government's official web portal to all federal, state and local government web resources and services.